FFL693 KMYR-KJAX

Flight info

Callsign FFL693
Flight time N/A
Altitude 26000
Route SUSYQ
Aircraft PC12/L-SDFGRWY/S

Departure

Time 2026-04-24 00:53
Airport Myrtle Beach International Airport (KMYR)

Arrival

Time N/A
Airport Jacksonville International Airport (KJAX)
Time Latitude Longitude Altitude Speed Heading
2026-04-23 23:57 33.67403 -78.93369 28 ft 0 kts 168°
2026-04-24 00:48 33.67387 -78.93350 28 ft 9 kts 116°
2026-04-24 00:48 33.67373 -78.93223 28 ft 22 kts 93°
2026-04-24 00:48 33.67491 -78.93094 28 ft 33 kts 356°
2026-04-24 00:49 33.67714 -78.93134 28 ft 22 kts 346°
2026-04-24 00:49 33.67835 -78.93167 28 ft 22 kts 342°
2026-04-24 00:49 33.68007 -78.93140 28 ft 30 kts 338°
2026-04-24 00:49 33.68217 -78.93262 28 ft 37 kts 342°
2026-04-24 00:50 33.68501 -78.93335 28 ft 46 kts 348°
2026-04-24 00:50 33.68836 -78.93401 28 ft 46 kts 342°
2026-04-24 00:50 33.69012 -78.93462 28 ft 8 kts 353°
2026-04-24 00:50 33.69070 -78.93474 28 ft 15 kts 347°
2026-04-24 00:51 33.69195 -78.93421 28 ft 27 kts 73°
2026-04-24 00:51 33.69216 -78.93290 29 ft 4 kts 75°
2026-04-24 00:51 33.69232 -78.93212 30 ft 15 kts 81°
2026-04-24 00:51 33.69225 -78.93155 30 ft 8 kts 144°
2026-04-24 00:52 33.69085 -78.93111 31 ft 44 kts 168°
2026-04-24 00:52 33.68606 -78.92995 30 ft 92 kts 169°
2026-04-24 00:52 33.67879 -78.92794 152 ft 127 kts 168°
2026-04-24 00:52 33.66931 -78.92529 572 ft 143 kts 169°
2026-04-24 00:53 33.65979 -78.92260 1292 ft 138 kts 173°
2026-04-24 00:53 33.65038 -78.92060 1909 ft 136 kts 192°
2026-04-24 00:53 33.64310 -78.92675 2522 ft 135 kts 237°
2026-04-24 00:53 33.63791 -78.93638 3080 ft 140 kts 227°
2026-04-24 00:54 33.63115 -78.94489 3693 ft 142 kts 225°
2026-04-24 00:54 33.62409 -78.95353 4266 ft 147 kts 227°
2026-04-24 00:54 33.61679 -78.96234 4894 ft 150 kts 227°
2026-04-24 00:54 33.60930 -78.97131 5540 ft 153 kts 228°
2026-04-24 00:55 33.60171 -78.98038 6241 ft 155 kts 229°
2026-04-24 00:55 33.59398 -78.98961 6911 ft 158 kts 228°
2026-04-24 00:55 33.58608 -78.99906 7572 ft 162 kts 229°
2026-04-24 00:55 33.57805 -79.00864 8250 ft 164 kts 229°
2026-04-24 00:56 33.56987 -79.01842 8865 ft 168 kts 229°
2026-04-24 00:56 33.56154 -79.02836 9502 ft 170 kts 229°
2026-04-24 00:56 33.55308 -79.03846 10133 ft 173 kts 229°
2026-04-24 00:56 33.54452 -79.04866 10746 ft 174 kts 228°
2026-04-24 00:57 33.53588 -79.05895 11346 ft 176 kts 227°
2026-04-24 00:57 33.52716 -79.06934 11954 ft 178 kts 227°
2026-04-24 00:57 33.50939 -79.09052 13163 ft 182 kts 225°
2026-04-24 00:58 33.50035 -79.10128 13765 ft 184 kts 225°
2026-04-24 00:58 33.49121 -79.11217 14315 ft 186 kts 225°
2026-04-24 00:58 33.48204 -79.12309 14889 ft 186 kts 225°
2026-04-24 00:58 33.47287 -79.13399 15452 ft 186 kts 225°
2026-04-24 00:59 33.46371 -79.14489 16021 ft 186 kts 225°
2026-04-24 00:59 33.45454 -79.15579 16587 ft 186 kts 225°
2026-04-24 00:59 33.44537 -79.16670 17156 ft 186 kts 225°
2026-04-24 00:59 33.43616 -79.17764 17719 ft 187 kts 225°
2026-04-24 01:00 33.42691 -79.18862 18283 ft 188 kts 225°
2026-04-24 01:00 33.41760 -79.19968 18753 ft 189 kts 226°
2026-04-24 01:00 33.40820 -79.21085 19211 ft 191 kts 226°
2026-04-24 01:00 33.39870 -79.22212 19668 ft 193 kts 226°
2026-04-24 01:01 33.38908 -79.23353 20121 ft 196 kts 226°
2026-04-24 01:01 33.37938 -79.24503 20586 ft 197 kts 226°
2026-04-24 01:01 33.36957 -79.25666 21034 ft 200 kts 226°
2026-04-24 01:01 33.35965 -79.26843 21483 ft 202 kts 227°
2026-04-24 01:02 33.34961 -79.28031 21915 ft 205 kts 227°
2026-04-24 01:02 33.33916 -79.29273 22081 ft 221 kts 227°
2026-04-24 01:02 33.32781 -79.30621 22086 ft 238 kts 227°
2026-04-24 01:02 33.31572 -79.32053 22087 ft 250 kts 226°
2026-04-24 01:03 33.30312 -79.33541 22087 ft 258 kts 226°
2026-04-24 01:03 33.29022 -79.35065 22082 ft 263 kts 226°
2026-04-24 01:03 33.27732 -79.36590 22086 ft 266 kts 226°
2026-04-24 01:03 33.26414 -79.38146 22080 ft 267 kts 226°
2026-04-24 01:04 33.25090 -79.39709 22081 ft 268 kts 226°
2026-04-24 01:04 33.23761 -79.41278 22073 ft 269 kts 226°
2026-04-24 01:04 33.22428 -79.42850 22073 ft 269 kts 226°
2026-04-24 01:04 33.21095 -79.44422 22073 ft 270 kts 226°
2026-04-24 01:05 33.19760 -79.45996 22072 ft 270 kts 226°
2026-04-24 01:05 33.18423 -79.47571 22078 ft 270 kts 226°
2026-04-24 01:05 33.17085 -79.49147 22072 ft 270 kts 226°
2026-04-24 01:05 33.15747 -79.50721 22065 ft 270 kts 226°
2026-04-24 01:06 33.14408 -79.52297 22068 ft 270 kts 226°
2026-04-24 01:06 33.13068 -79.53873 22064 ft 270 kts 226°
2026-04-24 01:06 33.11728 -79.55447 22067 ft 270 kts 226°
2026-04-24 01:06 33.10390 -79.57020 22069 ft 271 kts 226°
2026-04-24 01:07 33.09041 -79.58604 22075 ft 273 kts 226°
2026-04-24 01:07 33.07687 -79.60194 22079 ft 274 kts 226°
2026-04-24 01:07 33.06328 -79.61788 22082 ft 274 kts 226°
2026-04-24 01:07 33.04969 -79.63382 22082 ft 274 kts 226°
2026-04-24 01:08 33.03607 -79.64978 22084 ft 275 kts 226°
2026-04-24 01:08 33.02244 -79.66575 22087 ft 275 kts 226°
2026-04-24 01:08 33.00881 -79.68173 22091 ft 275 kts 226°
2026-04-24 01:08 32.99517 -79.69768 22088 ft 275 kts 226°
2026-04-24 01:09 32.98153 -79.71364 22095 ft 275 kts 226°
2026-04-24 01:09 32.96787 -79.72962 22090 ft 275 kts 226°
2026-04-24 01:09 32.95422 -79.74557 22093 ft 275 kts 226°
2026-04-24 01:09 32.94057 -79.76152 22089 ft 275 kts 226°
2026-04-24 01:10 32.92691 -79.77748 22092 ft 275 kts 226°
2026-04-24 01:10 32.91325 -79.79342 22090 ft 275 kts 226°
2026-04-24 01:10 32.89959 -79.80938 22090 ft 275 kts 226°
2026-04-24 01:10 32.88592 -79.82531 22091 ft 275 kts 226°
2026-04-24 01:11 32.87223 -79.84127 22090 ft 275 kts 226°
2026-04-24 01:11 32.85872 -79.85701 22090 ft 275 kts 226°
2026-04-24 01:11 32.84486 -79.87316 22091 ft 275 kts 226°
2026-04-24 01:11 32.83135 -79.88889 22088 ft 275 kts 226°
2026-04-24 01:12 32.81748 -79.90502 22088 ft 275 kts 226°
2026-04-24 01:12 32.80397 -79.92075 22096 ft 276 kts 226°
2026-04-24 01:12 32.79009 -79.93689 22098 ft 276 kts 226°
2026-04-24 01:12 32.77657 -79.95260 22098 ft 276 kts 226°
2026-04-24 01:13 32.76286 -79.96852 22096 ft 276 kts 226°
2026-04-24 01:13 32.74915 -79.98444 22097 ft 275 kts 226°
2026-04-24 01:13 32.73545 -80.00033 22101 ft 275 kts 226°
2026-04-24 01:13 32.72174 -80.01623 22097 ft 276 kts 226°
2026-04-24 01:14 32.70803 -80.03213 22096 ft 276 kts 226°
2026-04-24 01:14 32.69430 -80.04805 22093 ft 276 kts 226°
2026-04-24 01:14 32.68059 -80.06393 22096 ft 276 kts 226°
2026-04-24 01:14 32.66687 -80.07982 22095 ft 276 kts 226°
2026-04-24 01:15 32.65313 -80.09572 22096 ft 276 kts 226°
2026-04-24 01:15 32.63938 -80.11162 22091 ft 276 kts 226°
2026-04-24 01:15 32.62563 -80.12753 22089 ft 276 kts 226°
2026-04-24 01:15 32.61187 -80.14343 22089 ft 276 kts 226°
2026-04-24 01:16 32.59812 -80.15931 22087 ft 276 kts 226°
2026-04-24 01:16 32.58436 -80.17521 22082 ft 276 kts 226°
2026-04-24 01:16 32.57060 -80.19109 22083 ft 276 kts 226°
2026-04-24 01:16 32.55682 -80.20698 22080 ft 276 kts 226°
2026-04-24 01:17 32.54305 -80.22286 22079 ft 276 kts 226°
2026-04-24 01:17 32.52927 -80.23874 22079 ft 276 kts 226°
2026-04-24 01:17 32.51549 -80.25462 22074 ft 276 kts 226°
2026-04-24 01:17 32.50171 -80.27049 22074 ft 276 kts 226°
2026-04-24 01:18 32.48790 -80.28639 22077 ft 277 kts 226°
2026-04-24 01:18 32.47428 -80.30205 22070 ft 277 kts 226°
2026-04-24 01:18 32.46049 -80.31792 22070 ft 277 kts 226°
2026-04-24 01:18 32.44670 -80.33378 22072 ft 277 kts 226°
2026-04-24 01:19 32.43288 -80.34965 22074 ft 277 kts 225°
2026-04-24 01:19 32.41907 -80.36551 22072 ft 277 kts 225°
2026-04-24 01:19 32.40526 -80.38137 22072 ft 277 kts 225°
2026-04-24 01:19 32.39145 -80.39722 22072 ft 277 kts 225°
2026-04-24 01:20 32.37761 -80.41309 22072 ft 277 kts 225°
2026-04-24 01:20 32.36377 -80.42895 22082 ft 277 kts 225°
2026-04-24 01:20 32.34993 -80.44481 22084 ft 277 kts 225°
2026-04-24 01:20 32.33608 -80.46068 22087 ft 277 kts 225°
2026-04-24 01:21 32.32224 -80.47653 22088 ft 277 kts 225°
2026-04-24 01:21 32.30838 -80.49239 22088 ft 277 kts 225°
2026-04-24 01:21 32.29453 -80.50822 22091 ft 277 kts 225°
2026-04-24 01:21 32.28067 -80.52408 22091 ft 277 kts 225°
2026-04-24 01:22 32.26679 -80.53994 22091 ft 278 kts 225°
2026-04-24 01:22 32.25291 -80.55579 22096 ft 278 kts 225°
2026-04-24 01:22 32.23903 -80.57165 22097 ft 278 kts 225°
2026-04-24 01:22 32.22514 -80.58750 22097 ft 278 kts 225°
2026-04-24 01:23 32.21124 -80.60335 22098 ft 278 kts 225°
2026-04-24 01:23 32.19734 -80.61921 22098 ft 278 kts 225°
2026-04-24 01:23 32.18343 -80.63507 22098 ft 278 kts 225°
2026-04-24 01:23 32.16950 -80.65093 22097 ft 278 kts 225°
2026-04-24 01:24 32.15558 -80.66677 22098 ft 278 kts 225°
2026-04-24 01:24 32.14636 -80.67727 22098 ft 278 kts 225°
2026-04-24 01:24 32.12793 -80.69825 22096 ft 278 kts 225°
2026-04-24 01:24 32.11400 -80.71409 22096 ft 278 kts 225°
2026-04-24 01:25 32.10007 -80.72992 22093 ft 278 kts 225°
2026-04-24 01:25 32.08612 -80.74577 22091 ft 278 kts 225°
2026-04-24 01:25 32.07669 -80.75649 22088 ft 278 kts 225°
2026-04-24 01:25 32.05822 -80.77745 22083 ft 278 kts 225°
2026-04-24 01:26 32.04878 -80.78816 22080 ft 279 kts 225°
2026-04-24 01:26 32.03483 -80.80399 22078 ft 279 kts 225°
2026-04-24 01:26 32.02086 -80.81983 22074 ft 279 kts 224°
2026-04-24 01:26 32.00689 -80.83566 22072 ft 279 kts 224°
2026-04-24 01:27 31.99291 -80.85150 22048 ft 279 kts 224°
2026-04-24 01:27 31.97914 -80.86710 22050 ft 279 kts 224°
2026-04-24 01:27 31.96516 -80.88292 22048 ft 279 kts 224°
2026-04-24 01:27 31.95117 -80.89875 22046 ft 279 kts 224°
2026-04-24 01:28 31.93717 -80.91457 22047 ft 279 kts 224°
2026-04-24 01:28 31.92318 -80.93040 22046 ft 279 kts 224°
2026-04-24 01:28 31.90918 -80.94620 22045 ft 279 kts 224°
2026-04-24 01:28 31.89518 -80.96202 22045 ft 279 kts 224°
2026-04-24 01:29 31.88117 -80.97783 22045 ft 279 kts 224°
2026-04-24 01:29 31.86716 -80.99364 22044 ft 279 kts 224°
2026-04-24 01:29 31.85314 -81.00945 22046 ft 279 kts 224°
2026-04-24 01:29 31.83911 -81.02526 22043 ft 279 kts 224°
2026-04-24 01:30 31.82510 -81.04106 22044 ft 279 kts 224°
2026-04-24 01:30 31.81107 -81.05686 22046 ft 279 kts 224°
2026-04-24 01:30 31.79703 -81.07266 22045 ft 279 kts 224°
2026-04-24 01:30 31.78302 -81.08844 22045 ft 279 kts 224°
2026-04-24 01:31 31.76897 -81.10423 22047 ft 279 kts 224°
2026-04-24 01:31 31.75494 -81.12001 22048 ft 279 kts 224°
2026-04-24 01:31 31.74091 -81.13578 22048 ft 279 kts 224°
2026-04-24 01:31 31.72687 -81.15156 22046 ft 279 kts 224°
2026-04-24 01:32 31.71282 -81.16732 22053 ft 279 kts 224°
2026-04-24 01:32 31.69879 -81.18307 22056 ft 279 kts 224°
2026-04-24 01:32 31.68463 -81.19865 22050 ft 279 kts 220°
2026-04-24 01:32 31.66825 -81.21073 22055 ft 279 kts 208°
2026-04-24 01:33 31.65106 -81.22131 22060 ft 279 kts 208°
2026-04-24 01:33 31.63394 -81.23202 22062 ft 279 kts 208°
2026-04-24 01:33 31.61680 -81.24276 22062 ft 279 kts 208°
2026-04-24 01:33 31.59963 -81.25347 22066 ft 280 kts 208°
2026-04-24 01:34 31.58244 -81.26417 22068 ft 280 kts 208°
2026-04-24 01:34 31.56525 -81.27488 22068 ft 280 kts 208°
2026-04-24 01:34 31.54808 -81.28558 22071 ft 280 kts 208°
2026-04-24 01:34 31.53090 -81.29627 22070 ft 280 kts 208°
2026-04-24 01:35 31.51371 -81.30697 22073 ft 280 kts 208°
2026-04-24 01:35 31.49654 -81.31765 22077 ft 280 kts 208°
2026-04-24 01:35 31.47936 -81.32833 22077 ft 280 kts 208°
2026-04-24 01:35 31.46217 -81.33902 22079 ft 280 kts 208°
2026-04-24 01:36 31.44499 -81.34970 22081 ft 280 kts 208°
2026-04-24 01:36 31.42779 -81.36038 22080 ft 280 kts 208°
2026-04-24 01:36 31.41083 -81.37091 22084 ft 280 kts 208°
2026-04-24 01:36 31.39364 -81.38157 22085 ft 280 kts 208°
2026-04-24 01:37 31.37644 -81.39224 22086 ft 280 kts 208°
2026-04-24 01:37 31.35922 -81.40291 22088 ft 280 kts 208°
2026-04-24 01:37 31.34200 -81.41359 22088 ft 280 kts 208°
2026-04-24 01:37 31.32477 -81.42425 21830 ft 279 kts 208°